Temp
21 21 21 20 20 21 22 24 24 24 23 23 23 23 21 20 20 18 17 17 18 17 16 16 16 16 16 16 15 15 15 15 15 15 15 15 15 15 15 15 15 15 15 15 15 15 16 16 15
21 21 20 21 20 21 23 23 24 22 23 22 23 23 22 19 18 18 17 17 17 17 16 16 16 16 16 16 16 15 15 15 15 15 15 15 15 15 15 15 15 15 15 15 15 15 15 15 15
21 20 20 20 21 22 23 24 21 22 23 23 22 22 22 20 19 18 17 17 16 16 15 16 16 16 16 16 16 16 15 15 15 15 15 15 15 15 15 15 15 14 14 14 15 15 15 15 15
18 20 21 20 22 23 25 22 23 22 22 23 23 19 19 18 18 17 16 16 16 15 15 16 16 16 16 16 16 16 15 15 15 15 15 15 15 15 15 15 15 15 14 14 14 14 15 15 15
19 20 20 22 23 23 23 24 23 22 23 22 22 20 18 17 17 16 16 16 17 16 15 16 16 16 16 16 15 15 15 15 15 15 15 15 15 15 15 15 15 15 15 15 14 14 14 14 15
20 21 20 21 23 23 23 23 24 24 23 22 22 22 18 18 17 16 16 16 16 15 15 16 15 16 15 15 15 15 15 15 15 15 15 15 15 15 15 15 15 15 15 15 15 15 14 14 14
19 20 21 22 22 21 22 22 23 22 22 21 21 21 18 17 17 16 16 16 15 15 15 14 15 15 15 15 15 14 14 14 14 14 14 14 14 14 14 14 14 14 14 14 14 15 15 14 14
20 20 22 24 22 22 21 22 21 22 20 20 21 21 18 17 16 17 16 15 15 14 14 14 13 13 13 13 14 14 14 14 14 14 14 14 14 13 14 13 13 13 13 14 14 14 14 14 14
19 18 21 23 24 21 21 20 20 20 20 20 19 19 17 17 17 16 15 15 15 14 14 14 14 13 13 13 13 14 14 14 14 14 13 13 13 13 13 13 13 13 13 13 13 13 13 13 13
19 19 19 20 20 20 21 21 19 20 20 19 18 17 17 16 16 16 15 16 15 15 14 14 14 14 13 13 13 12 13 13 13 13 13 13 12 12 12 11 11 12 12 12 12 12 12 12 12
21 19 20 18 17 21 20 19 19 20 19 21 19 17 16 16 16 15 15 14 15 15 15 14 14 14 14 13 13 12 12 13 12 12 12 12 12 12 11 11 11 11 11 10 11 11 11 10 10
20 19 19 18 17 19 19 19 19 19 18 18 19 17 16 15 15 15 14 14 14 15 15 14 14 14 14 13 12 12 12 12 12 12 12 12 12 11 11 11 11 10 11 10 10 10 10 9 9
20 18 17 17 17 17 17 18 18 18 18 17 17 16 15 15 14 14 14 14 14 14 14 14 13 13 13 12 12 12 12 12 12 12 12 12 11 11 11 11 10 10 11 10 10 10 9 8 8
18 18 17 17 17 16 17 18 18 19 17 16 15 15 15 14 13 13 13 13 13 13 13 13 13 12 12 12 12 12 11 12 12 12 11 11 11 10 10 10 10 10 10 10 10 9 8 7 7
18 17 17 17 17 17 16 17 15 18 17 16 15 15 14 13 13 12 13 13 13 13 13 13 12 12 12 12 12 12 11 11 11 11 10 10 10 10 9 9 9 9 9 9 9 8 8 7 7
18 19 17 17 17 16 16 18 17 17 16 16 16 16 14 13 13 12 13 13 13 12 12 12 12 12 12 12 11 11 11 11 11 10 10 10 9 9 9 9 9 9 9 9 8 8 7 6 6
18 17 19 16 16 16 16 17 18 17 16 16 16 16 15 14 13 12 12 12 12 12 12 12 12 12 12 11 11 11 11 11 10 9 9 9 9 8 8 8 8 8 8 8 7 7 6 5 6
17 19 20 19 14 16 15 15 17 17 16 16 17 16 16 14 13 12 11 12 12 12 12 12 11 11 11 11 11 11 10 9 8 8 8 9 8 8 8 8 8 7 7 7 6 6 6 5 5
15 16 16 16 14 13 14 15 17 20 17 16 17 17 16 15 14 13 11 12 12 12 12 11 11 11 11 11 11 11 11 10 10 9 8 9 8 8 8 8 8 7 7 7 6 6 7 6 5
15 16 16 16 14 14 14 12 15 16 17 15 16 17 16 15 13 12 11 11 12 11 11 11 11 11 11 11 10 10 10 10 9 9 8 8 8 8 8 7 7 7 7 7 6 5 6 6 5
15 13 12 12 12 14 12 12 16 14 14 14 15 16 16 15 13 12 11 11 11 11 11 11 11 11 10 10 10 10 10 9 9 7 7 7 7 8 8 7 7 7 7 7 6 5 4 4 5
12 10 11 11 9 9 13 8 15 13 13 14 15 15 15 15 14 13 12 11 10 10 11 11 11 10 10 10 10 10 9 9 8 8 8 8 7 8 8 7 7 7 7 7 6 5 4 3 4
10 10 10 9 8 7 12 6 11 15 14 13 13 14 14 13 13 12 11 11 11 11 11 11 10 10 10 10 10 9 9 8 8 8 7 6 6 7 7 7 7 7 7 6 6 6 5 4 3
9 9 10 9 7 4 12 9 8 14 15 15 14 14 14 13 12 12 11 11 11 11 11 11 10 10 10 10 10 9 8 8 8 7 7 6 6 6 6 7 7 7 7 7 6 6 5 5 4
9 6 5 6 5 8 3 6 9 14 13 14 13 14 14 12 12 11 11 10 10 10 11 10 10 10 10 10 9 9 8 8 7 7 6 6 6 5 5 6 6 6 6 6 6 6 6 6 5
7 4 5 8 8 7 4 5 8 12 12 12 12 13 14 12 12 11 11 10 10 10 10 10 10 10 10 9 9 9 8 8 7 7 6 6 6 5 5 6 6 6 6 6 6 6 6 5 5
7 3 7 3 2 3 6 10 13 11 11 11 11 13 13 13 12 12 11 10 10 10 10 10 10 10 9 9 9 8 8 8 7 7 7 6 6 6 6 6 6 6 6 6 6 5 5 5 5
7 7 6 3 6 7 9 11 8 9 9 10 10 12 12 12 12 12 11 10 10 10 10 10 9 9 9 9 8 8 8 7 7 7 6 6 6 6 5 5 6 6 6 6 5 5 5 5 4
4 4 5 5 5 6 6 8 6 6 7 9 11 12 12 13 12 12 11 10 9 9 9 9 9 9 8 8 8 8 7 7 7 7 6 6 6 6 6 5 5 5 5 5 5 5 4 4 4
9 8 7 5 6 4 3 5 10 8 8 11 13 13 13 13 12 12 10 10 9 9 8 8 9 8 8 8 8 8 7 7 7 7 7 7 7 6 6 6 5 5 5 5 4 4 4 4 4
Height
1515 1514 1515 1515 1525 1517 1519 1514 1505 1512 1514 1518 1519 1522 1528 1530 1531 1544 1542 1542 1544 1541 1542 1542 1541 1541 1541 1541 1541 1540 1540 1539 1539 1539 1538 1538 1537 1536 1535 1535 1534 1533 1533 1533 1533 1533 1533 1532 1533
1515 1515 1517 1515 1525 1528 1517 1507 1511 1515 1517 1519 1520 1523 1526 1536 1537 1540 1541 1543 1544 1544 1541 1541 1541 1540 1540 1540 1539 1539 1539 1539 1538 1538 1537 1536 1535 1535 1534 1534 1533 1532 1531 1531 1531 1530 1530 1530 1530
1515 1516 1518 1516 1518 1523 1519 1506 1512 1517 1519 1519 1522 1525 1528 1537 1539 1540 1541 1543 1543 1543 1540 1541 1540 1540 1539 1539 1539 1539 1538 1538 1537 1536 1535 1535 1534 1533 1532 1532 1531 1530 1530 1529 1529 1528 1528 1528 1528
1516 1518 1517 1520 1517 1512 1508 1510 1512 1518 1521 1521 1522 1528 1533 1536 1538 1539 1541 1542 1542 1542 1540 1540 1540 1539 1539 1539 1538 1538 1537 1536 1536 1535 1534 1533 1532 1531 1531 1530 1529 1529 1527 1527 1527 1526 1526 1526 1525
1517 1516 1519 1517 1512 1510 1508 1511 1515 1518 1519 1522 1524 1529 1534 1536 1538 1540 1540 1542 1543 1540 1538 1540 1539 1539 1539 1538 1537 1537 1536 1535 1534 1533 1532 1531 1530 1529 1528 1528 1527 1526 1525 1524 1524 1523 1523 1523 1523
1518 1515 1519 1522 1510 1509 1512 1515 1517 1518 1520 1524 1525 1526 1535 1537 1537 1539 1541 1541 1541 1540 1539 1538 1538 1538 1537 1536 1536 1535 1534 1534 1532 1531 1530 1529 1527 1526 1525 1524 1523 1523 1521 1521 1520 1519 1519 1520 1519
1517 1514 1515 1508 1511 1514 1514 1517 1518 1519 1522 1525 1525 1526 1535 1536 1536 1537 1539 1539 1540 1539 1538 1537 1536 1536 1535 1535 1534 1533 1533 1532 1531 1530 1529 1527 1525 1524 1522 1521 1520 1519 1518 1517 1516 1516 1515 1514 1515
1515 1511 1510 1502 1512 1513 1514 1517 1518 1520 1524 1526 1526 1527 1534 1534 1535 1536 1537 1538 1538 1538 1538 1538 1537 1535 1533 1532 1532 1531 1531 1530 1529 1528 1527 1526 1523 1521 1519 1518 1517 1515 1514 1512 1511 1511 1510 1509 1509
1516 1520 1514 1507 1504 1510 1513 1518 1521 1523 1524 1526 1528 1528 1531 1532 1533 1535 1536 1538 1538 1537 1537 1535 1535 1534 1533 1532 1529 1529 1529 1528 1527 1526 1524 1524 1521 1520 1518 1516 1514 1512 1511 1509 1507 1506 1505 1504 1504
1516 1516 1515 1513 1509 1512 1514 1516 1522 1525 1525 1527 1528 1529 1530 1531 1532 1533 1534 1536 1535 1534 1533 1533 1532 1532 1531 1530 1529 1527 1527 1526 1525 1524 1523 1521 1519 1518 1515 1513 1511 1509 1507 1506 1504 1502 1501 1500 1499
1513 1517 1513 1516 1514 1512 1516 1518 1520 1523 1525 1523 1526 1527 1528 1530 1530 1530 1531 1532 1532 1531 1530 1529 1528 1529 1529 1528 1528 1527 1526 1525 1523 1522 1520 1519 1517 1515 1513 1511 1509 1507 1505 1502 1500 1499 1498 1496 1495
1516 1517 1515 1518 1517 1516 1519 1520 1521 1521 1524 1522 1523 1524 1526 1529 1529 1529 1529 1529 1529 1528 1527 1526 1525 1526 1526 1526 1525 1525 1524 1523 1521 1520 1518 1516 1515 1513 1511 1509 1507 1504 1502 1500 1497 1495 1494 1492 1492
1513 1518 1519 1520 1519 1519 1521 1519 1520 1521 1521 1521 1521 1523 1524 1526 1528 1527 1527 1527 1527 1526 1525 1524 1523 1524 1524 1524 1523 1523 1522 1521 1520 1518 1517 1515 1513 1511 1509 1507 1504 1501 1500 1497 1493 1492 1490 1488 1488
1516 1519 1520 1522 1522 1521 1521 1519 1519 1516 1517 1520 1521 1521 1522 1525 1525 1525 1526 1526 1525 1525 1524 1524 1523 1523 1522 1522 1522 1521 1520 1519 1518 1517 1515 1513 1511 1509 1507 1504 1502 1499 1496 1494 1491 1489 1487 1485 1484
1518 1521 1521 1521 1523 1520 1521 1520 1516 1515 1516 1518 1519 1519 1521 1523 1523 1524 1524 1525 1524 1524 1524 1523 1523 1522 1522 1521 1520 1519 1517 1517 1516 1515 1513 1511 1509 1507 1505 1501 1499 1496 1494 1491 1488 1487 1484 1482 1481
1518 1517 1524 1522 1522 1521 1521 1519 1509 1512 1514 1516 1516 1518 1519 1521 1522 1523 1523 1524 1524 1524 1524 1522 1522 1521 1521 1520 1519 1517 1515 1514 1513 1511 1510 1509 1507 1505 1503 1499 1497 1494 1492 1489 1486 1484 1482 1480 1478
1517 1524 1516 1524 1523 1522 1521 1516 1510 1511 1514 1515 1514 1516 1517 1519 1521 1522 1521 1522 1523 1522 1522 1521 1521 1520 1520 1519 1517 1515 1513 1512 1510 1509 1508 1505 1505 1503 1501 1497 1495 1493 1490 1487 1485 1483 1481 1478 1476
1527 1518 1510 1514 1525 1521 1521 1516 1510 1508 1508 1510 1512 1513 1515 1517 1519 1521 1521 1521 1521 1521 1520 1520 1519 1518 1518 1517 1515 1513 1512 1510 1508 1506 1505 1502 1502 1501 1499 1496 1493 1491 1488 1486 1484 1481 1479 1477 1475
1526 1524 1524 1520 1525 1525 1520 1515 1505 1504 1505 1505 1506 1509 1512 1514 1516 1518 1520 1520 1520 1519 1519 1519 1518 1517 1517 1515 1513 1512 1510 1508 1507 1505 1502 1500 1499 1498 1496 1494 1491 1489 1487 1484 1482 1480 1477 1476 1474
1523 1526 1527 1521 1525 1526 1520 1517 1501 1500 1499 1502 1502 1503 1507 1511 1512 1516 1519 1518 1518 1518 1517 1517 1516 1515 1514 1513 1512 1509 1507 1505 1503 1502 1500 1497 1497 1495 1494 1492 1490 1488 1485 1483 1481 1479 1477 1475 1475
1529 1536 1537 1537 1529 1519 1525 1515 1496 1498 1498 1499 1499 1500 1503 1506 1509 1513 1516 1517 1516 1515 1516 1515 1514 1513 1512 1510 1508 1506 1503 1501 1499 1498 1496 1494 1493 1493 1491 1490 1488 1486 1484 1481 1480 1478 1477 1474 1475
1538 1542 1539 1538 1542 1547 1526 1549 1503 1498 1499 1499 1498 1498 1501 1504 1508 1511 1514 1515 1515 1514 1514 1513 1512 1511 1509 1507 1504 1502 1499 1497 1497 1495 1493 1492 1492 1489 1488 1487 1486 1484 1482 1480 1478 1477 1476 1475 1473
1542 1543 1544 1545 1546 1549 1530 1554 1512 1496 1498 1498 1499 1501 1502 1504 1507 1509 1510 1510 1511 1511 1511 1511 1509 1508 1506 1504 1501 1498 1496 1495 1493 1491 1490 1489 1488 1487 1486 1485 1484 1482 1480 1478 1477 1476 1474 1473 1472
1545 1545 1541 1543 1549 1570 1528 1538 1523 1498 1492 1493 1495 1498 1501 1504 1506 1508 1508 1508 1507 1507 1508 1508 1508 1506 1503 1501 1499 1496 1494 1492 1490 1488 1488 1487 1486 1485 1483 1483 1482 1480 1478 1477 1475 1474 1473 1472 1471
1545 1550 1566 1567 1569 1552 1554 1548 1513 1492 1491 1493 1494 1495 1498 1501 1502 1504 1505 1506 1506 1505 1505 1506 1505 1504 1502 1499 1497 1495 1493 1490 1488 1486 1485 1484 1483 1483 1481 1480 1479 1478 1476 1475 1474 1472 1471 1470 1469
1546 1556 1561 1560 1553 1549 1551 1548 1510 1489 1491 1493 1494 1496 1497 1499 1501 1503 1503 1503 1504 1504 1503 1503 1503 1501 1500 1498 1496 1493 1491 1489 1486 1484 1483 1482 1481 1480 1479 1478 1477 1475 1474 1473 1472 1470 1469 1468 1467
1548 1561 1549 1566 1573 1572 1539 1510 1491 1491 1491 1492 1492 1492 1493 1494 1497 1498 1499 1500 1500 1501 1500 1500 1500 1499 1498 1496 1494 1492 1490 1487 1485 1483 1481 1479 1478 1477 1476 1475 1474 1472 1471 1470 1469 1468 1467 1466 1465
1544 1547 1555 1565 1563 1555 1527 1513 1514 1497 1492 1490 1490 1489 1489 1490 1491 1493 1495 1496 1497 1497 1497 1497 1497 1496 1495 1494 1492 1490 1488 1486 1483 1481 1479 1477 1476 1474 1473 1472 1471 1470 1469 1468 1466 1465 1464 1463 1462
1550 1552 1549 1549 1549 1557 1549 1522 1492 1491 1486 1485 1484 1484 1485 1487 1488 1490 1492 1493 1493 1493 1493 1493 1493 1494 1493 1491 1490 1488 1486 1484 1482 1479 1477 1475 1474 1472 1471 1470 1469 1468 1467 1466 1464 1463 1462 1461 1459
1532 1534 1536 1551 1546 1552 1558 1530 1480 1480 1479 1481 1480 1480 1482 1482 1483 1484 1486 1487 1489 1489 1489 1489 1490 1490 1489 1488 1486 1485 1483 1481 1479 1477 1475 1473 1472 1470 1469 1467 1466 1465 1464 1463 1462 1461 1460 1458 1457
Wind_Speed
4 0 1 1 1 2 5 3 6 6 5 7 9 8 13 19 6 5 9 10 8 4 2 2 4 4 4 5 4 5 5 7 8 9 9 9 10 9 9 9 9 10 10 11 11 10 10 11 11
2 4 1 4 1 4 3 8 5 10 12 10 9 4 7 10 15 13 9 10 8 8 2 2 4 4 4 5 5 6 8 9 10 11 11 11 11 12 11 11 11 11 10 10 12 11 12 12 11
2 3 1 2 3 2 2 6 10 11 6 4 6 9 6 5 8 7 7 10 5 5 6 3 2 3 4 5 7 8 8 9 9 10 11 11 12 12 13 12 12 11 11 12 11 12 12 13 13
4 1 5 1 7 4 4 10 15 10 6 4 7 8 7 5 6 7 10 7 4 4 5 2 3 5 6 7 8 9 9 10 11 12 13 13 14 14 14 14 14 14 14 14 15 14 13 13 12
0 4 3 4 3 3 7 12 12 6 8 9 1 7 8 4 8 7 6 11 2 3 6 2 5 6 7 7 8 9 11 12 13 14 16 17 18 18 18 18 18 17 16 16 16 17 16 16 14
5 4 3 5 3 6 5 6 2 8 11 5 4 10 6 6 7 9 7 5 8 5 6 8 7 8 9 10 11 12 13 15 16 17 18 18 19 19 19 19 20 20 20 20 19 19 19 19 18
3 3 5 8 8 6 5 6 3 9 10 5 3 3 10 9 11 9 7 8 4 6 5 8 12 11 11 11 12 13 15 15 16 16 17 17 17 17 17 17 17 17 19 20 21 21 22 22 21
4 3 7 6 6 4 9 7 5 4 5 5 4 2 8 9 6 5 4 5 5 6 6 4 9 11 14 14 15 14 15 15 14 15 15 17 17 18 19 19 19 19 19 19 19 20 21 23 24
3 3 4 4 1 7 14 5 2 3 8 4 3 5 9 6 2 2 1 4 3 5 6 11 12 9 14 12 16 14 13 13 15 17 18 18 17 17 18 19 19 19 19 19 19 20 21 21 23
3 3 5 7 6 7 12 9 9 4 9 6 7 3 4 5 6 7 7 8 9 12 14 15 15 13 13 11 12 12 13 14 15 18 18 16 16 15 16 17 18 20 21 20 19 20 19 17 15
0 3 4 8 8 8 5 5 5 3 5 7 12 11 4 2 2 3 5 7 11 13 14 14 15 13 11 11 10 8 12 14 15 17 16 14 14 14 13 13 15 17 17 17 19 19 17 16 17
2 5 7 2 4 3 6 7 3 4 3 7 10 10 5 2 3 7 7 8 8 9 9 10 10 8 7 8 9 9 10 12 13 14 14 15 15 15 15 16 17 16 19 20 18 19 18 15 16
3 5 6 4 5 4 1 4 1 7 10 9 8 6 5 6 6 7 4 4 4 4 4 4 3 3 4 4 7 8 10 10 10 12 12 14 15 16 16 17 16 16 20 20 20 20 18 17 16
5 7 7 2 2 2 3 4 4 10 15 9 7 6 6 6 6 6 3 2 1 4 5 5 4 2 3 5 6 7 9 10 11 11 14 15 16 17 17 17 17 16 18 19 20 19 17 16 15
13 6 5 4 1 1 2 5 8 9 12 9 8 8 7 8 6 8 5 3 0 2 4 5 4 4 5 6 7 9 9 11 13 15 16 17 17 18 17 17 17 17 17 18 17 16 15 14 13
4 2 3 3 3 2 1 6 8 15 12 14 12 12 9 9 8 8 6 3 1 1 3 4 5 6 6 8 9 10 11 13 15 16 16 16 17 18 18 17 16 16 17 17 16 16 15 12 12
4 3 6 4 1 2 5 5 6 10 12 14 14 11 10 11 9 10 7 5 4 4 5 5 6 7 8 9 10 10 11 13 14 14 17 16 16 18 18 16 15 15 17 15 15 16 15 13 13
4 4 4 2 2 3 5 12 8 17 19 18 12 13 13 14 11 11 8 6 5 6 5 5 5 6 7 7 9 11 11 13 15 18 19 17 16 16 17 16 14 15 16 15 15 15 13 11 13
5 5 7 4 3 3 6 11 9 11 23 18 19 15 14 14 14 13 8 7 5 4 3 4 4 4 6 9 12 13 13 12 13 15 17 20 17 15 15 15 15 16 15 14 13 14 14 8 12
6 6 6 2 2 3 6 13 18 11 6 2 6 21 16 16 15 9 7 6 3 4 4 4 5 8 11 13 14 16 16 15 14 12 13 13 14 15 15 15 15 15 15 13 12 13 13 9 8
2 3 5 3 10 2 7 8 2 4 3 4 6 13 19 19 13 12 9 6 5 6 4 6 9 11 13 15 16 16 16 15 15 12 14 15 19 17 14 13 13 13 13 13 11 12 12 13 5
1 4 5 6 6 3 2 5 7 4 6 4 2 8 15 16 14 14 11 7 5 7 7 8 9 11 13 15 17 18 18 17 14 14 13 13 14 15 13 12 12 12 12 11 11 9 9 9 14
1 3 1 1 1 5 2 2 7 4 5 5 10 9 11 12 15 13 13 12 8 7 7 6 8 10 14 16 16 16 16 15 14 12 12 12 13 13 13 12 11 11 11 10 10 9 8 5 10
0 2 1 1 1 1 2 3 6 4 4 4 12 19 18 16 16 13 13 10 7 5 4 6 9 10 11 13 15 16 16 14 14 11 11 9 9 13 14 12 11 11 11 10 10 10 9 8 7
4 3 3 5 3 5 4 2 10 4 4 0 2 19 19 17 15 15 13 8 7 6 5 6 8 9 10 12 14 15 15 14 13 11 11 10 10 9 13 14 13 12 11 11 10 9 9 8 8
2 4 4 5 2 4 4 6 6 4 3 2 7 5 17 17 14 14 13 15 11 8 6 7 8 8 10 12 13 14 14 14 13 11 11 11 10 11 13 14 13 11 11 11 10 9 9 9 8
3 0 0 3 1 3 4 7 6 6 5 6 8 9 15 17 16 16 16 16 12 9 8 9 9 9 11 12 13 13 13 14 13 12 11 10 10 11 12 13 12 12 12 12 11 10 9 9 9
1 3 3 2 1 4 5 5 6 6 8 8 10 15 17 19 19 18 17 16 14 12 11 11 10 9 11 12 13 14 14 14 14 13 11 11 10 11 12 13 12 12 12 12 12 11 10 10 10
2 2 3 1 3 4 2 6 6 8 9 10 14 19 19 18 19 19 17 16 15 14 14 12 11 10 10 11 13 15 15 15 14 13 12 12 11 11 11 12 12 12 12 12 13 13 12 12 12
1 4 7 4 4 2 3 8 7 8 9 13 14 15 14 15 18 20 20 18 16 15 16 16 13 11 10 11 12 15 16 16 15 14 14 13 12 12 12 12 12 12 12 12 13 13 13 14 14
Wind_Direction
279 46 338 330 349 193 249 95 75 102 80 82 67 38 88 46 27 85 130 120 105 49 337 329 313 333 348 352 345 325 320 316 318 320 322 323 322 322 322 319 316 310 304 301 300 302 294 288 294
276 130 42 286 238 211 225 118 128 76 87 107 86 42 75 78 76 112 124 124 128 118 233 281 304 325 322 316 312 311 317 321 324 324 322 320 317 315 314 314 313 308 298 294 292 290 289 288 284
147 110 270 214 230 345 9 142 99 92 89 101 104 61 55 80 74 113 129 129 140 154 260 277 308 322 320 326 330 330 327 324 322 322 321 319 318 317 315 312 306 300 297 294 293 291 287 282 282
94 263 268 286 237 58 35 94 109 117 111 55 91 87 83 95 135 143 139 126 174 173 244 287 319 326 333 333 326 320 319 320 319 318 316 315 314 311 308 306 304 301 296 291 289 287 287 285 278
328 259 261 222 241 94 53 91 139 171 131 121 267 119 101 105 116 125 133 134 155 186 273 298 314 318 318 315 314 316 316 313 314 316 317 316 314 310 308 305 300 297 294 290 288 287 283 281 276
259 253 260 215 158 97 85 101 246 122 110 100 122 112 105 130 130 147 146 170 183 226 262 301 306 306 308 309 311 312 312 314 315 317 319 319 316 312 307 302 299 298 295 290 285 282 281 280 275
250 217 256 251 137 134 137 150 199 129 131 60 87 99 129 151 178 173 169 188 198 251 269 310 309 307 305 306 308 312 314 316 320 325 330 331 328 324 323 318 318 309 303 297 292 285 279 275 274
288 296 265 274 143 150 125 157 92 96 94 141 126 126 147 166 211 199 212 174 232 252 297 297 282 311 309 307 308 313 319 319 323 327 329 330 326 328 328 325 320 316 310 303 298 292 284 277 271
300 287 261 265 112 121 139 116 119 146 119 118 69 104 143 183 149 138 60 322 288 303 284 271 284 268 287 294 302 310 314 315 323 328 330 330 326 321 322 318 319 316 317 317 311 303 296 286 276
231 258 38 349 6 120 159 142 145 173 139 133 133 160 161 158 179 181 194 213 227 239 254 272 272 273 266 286 289 312 315 320 325 325 328 327 324 326 327 326 326 327 325 322 318 314 309 300 287
214 343 109 34 1 91 92 86 113 255 184 176 182 170 215 155 250 199 225 239 258 272 279 271 281 278 279 271 286 280 301 314 321 322 329 334 337 333 329 323 317 320 324 318 314 311 308 298 282
215 36 33 90 36 65 132 128 173 258 157 161 178 176 211 201 249 255 265 275 286 292 293 285 290 279 283 277 279 287 294 309 315 325 333 337 332 330 329 326 321 326 326 317 313 310 305 296 287
123 91 70 88 85 53 151 188 240 224 222 209 204 208 190 222 245 272 265 289 308 332 349 356 355 297 297 286 285 293 301 314 324 326 331 333 332 332 331 326 324 328 320 316 316 312 305 297 292
97 123 117 96 91 85 306 170 189 222 210 204 216 202 220 213 207 248 213 206 355 16 20 24 23 352 329 304 311 308 311 325 326 326 327 329 329 330 327 328 325 324 323 319 318 313 308 306 303
139 119 157 197 114 220 340 268 225 184 197 196 212 202 201 223 195 220 209 196 176 21 6 2 357 346 332 324 325 321 326 327 324 321 323 326 330 332 330 329 328 327 325 324 322 317 311 307 298
210 161 188 121 276 182 64 268 168 172 195 209 208 207 204 208 185 231 204 207 228 326 325 326 326 325 324 320 318 318 318 319 316 314 318 324 331 332 334 331 330 328 329 329 331 330 323 321 320
199 257 198 156 41 329 206 270 161 192 203 223 205 204 199 195 195 222 228 229 256 294 296 303 306 312 317 320 320 321 323 329 327 318 316 319 323 326 333 333 329 330 331 336 335 328 326 327 332
346 295 342 144 16 278 264 263 250 202 206 218 219 208 211 201 205 220 240 245 271 292 296 297 314 325 337 338 338 337 330 320 318 312 309 313 315 320 329 333 330 331 332 333 330 333 336 339 345
301 322 309 118 61 323 248 266 262 266 213 214 219 225 212 201 191 204 227 253 272 286 302 320 332 345 335 335 333 331 328 318 304 294 290 305 307 316 324 331 333 331 330 332 330 330 335 353 334
22 329 316 110 82 329 318 296 272 257 269 286 242 209 202 193 182 205 231 241 246 275 293 302 312 315 318 321 324 323 323 323 320 319 315 314 311 311 319 327 328 330 330 334 333 336 340 342 359
71 346 3 320 328 240 314 279 215 81 77 345 267 224 200 194 176 194 215 227 257 270 284 294 303 308 313 317 320 320 321 318 317 312 307 309 306 310 313 320 325 328 329 333 335 340 340 344 350
337 8 345 350 18 269 36 278 300 148 159 200 249 188 169 173 177 181 192 210 241 261 292 297 304 310 314 319 322 324 326 323 317 305 306 299 297 305 314 318 321 326 328 330 330 327 331 339 335
166 351 14 150 313 32 252 72 265 148 208 186 181 183 182 192 198 197 204 211 222 265 291 303 308 315 320 327 328 331 331 323 317 313 302 303 308 308 311 316 318 326 328 329 328 329 331 325 328
125 304 27 333 91 8 164 146 283 191 150 154 183 183 190 187 191 200 220 219 229 255 282 309 317 324 328 331 336 337 332 330 326 322 312 309 299 296 304 314 320 323 328 331 331 327 325 321 301
223 62 322 345 11 227 318 34 242 162 148 334 223 179 184 192 198 210 224 228 241 250 278 301 312 323 333 339 341 338 337 338 334 324 315 305 299 289 294 307 315 318 323 324 323 323 324 321 318
116 140 151 229 252 274 340 242 260 116 112 210 254 264 183 193 210 217 214 227 231 240 265 293 307 323 335 339 340 339 339 340 340 330 315 307 298 286 287 296 302 307 312 314 315 316 316 315 315
223 29 144 92 83 45 240 284 287 164 197 207 226 230 186 201 214 225 219 232 230 243 270 293 303 313 326 334 336 336 338 341 342 338 326 315 306 301 300 302 303 304 306 306 308 308 308 304 306
180 161 70 351 344 282 283 261 237 230 215 206 212 212 213 218 223 223 223 232 236 250 271 287 288 303 321 331 333 334 334 336 339 339 336 325 317 309 304 304 303 302 301 302 302 305 304 302 302
134 227 215 105 166 195 276 265 216 218 201 199 209 210 216 221 226 224 232 236 242 255 271 277 278 292 312 327 334 337 336 331 329 327 326 325 320 311 308 306 306 306 302 300 299 300 300 298 299
267 219 183 141 245 240 144 271 245 208 202 209 210 210 218 228 232 234 228 234 241 261 274 274 262 275 297 318 329 335 334 328 321 318 319 318 316 315 312 309 306 304 303 301 299 296 295 293 294